Regional Weather Roundup
Issued by NWS Cleveland, OH

Home | Current Version | Previous Version | Text Only | Print | Product List | Glossary Off
Versions: 1 2 3 4 5 6 7 8 9 10 11 12 13 14 15 16 17 18 19 20 21 22 23 24 25 26 27 28 29 30 31 32 33 34 35 36 37 38 39 40 41 42 43 44 45 46 47 48 49 50

000
ASUS41 KCLE 221710
RWRCLE
OHIO REGIONAL WEATHER ROUNDUP
NATIONAL WEATHER SERVICE WILMINGTON, OH
100 PM EDT MON SEP 22 2014

NOTE: "FAIR" INDICATES FEW OR NO CLOUDS BELOW 12,000 FEET WITH NO
SIGNIFICANT WEATHER AND/OR OBSTRUCTIONS TO VISIBILITY.

OHZ001>008-015>018-024>027-034-035-043-044-221800-
   NORTHWEST OHIO

CITY           SKY/WX    TMP DP  RH WIND       PRES   REMARKS
DEFIANCE       SUNNY    N/A N/A N/A VRB5      30.24S
FINDLAY        SUNNY     58  39  49 NW12G17   30.22F
TOLEDO EXPRESS SUNNY     57  40  52 N7        30.22F
TOLEDO METCALF MOSUNNY   57  39  51 NW8       30.24R
LIMA           SUNNY     56  40  55 NW6       30.24S
$$

OHZ009>014-019>023-028>033-038-089-221800-
   NORTHEAST OHIO

CITY           SKY/WX    TMP DP  RH WIND       PRES   REMARKS
CLE-HOPKINS    CLOUDY    53  40  61 NW13      30.23R
CLE-LAKEFRONT  CLOUDY    55  41  59 NW10      30.20R
CUY CO. ARPT   CLOUDY    54  45  71 NW16      30.20R
LORAIN-ELYRIA  CLOUDY    56  40  55 N9        30.23R
ASHTABULA      CLOUDY    52  44  74 NW7       30.18R
AKRON-CANTON   CLOUDY    55  40  56 NW10      30.19R
WOOSTER        CLOUDY    54  42  64 NW8       30.21S
MANSFIELD      CLOUDY    52  39  61 NW8       30.22S
YOUNGSTOWN     CLOUDY    53  42  66 NW12      30.17R
$$

OHZ042-051>053-060>062-070>072-077>081-221800-
  SOUTHWEST OHIO

CITY           SKY/WX    TMP DP  RH WIND       PRES   REMARKS
CINC-COVINGTON MOSUNNY   60  43  53 NW10      30.25R
CINC-LUNKEN    MOSUNNY   60  43  53 N6        30.26S
HAMILTON       MOSUNNY   58  43  57 NE6       30.26F
DAYTON         MOSUNNY   57  40  52 VRB3      30.26S
WRIGHT-PAT AFB SUNNY     57  40  52 W6        30.25R
DAYTON GENERAL SUNNY     56  41  57 VRB5      30.25R
WILMINGTON     MOSUNNY   59  41  51 NW7       30.23F
$$

OHZ036-037-039>041-045>050-054>059-063>069-073>076-082>088-221800-
  CENTRAL AND SOUTHEAST OHIO

CITY           SKY/WX    TMP DP  RH WIND       PRES   REMARKS
COLUMBUS       PTSUNNY   60  40  47 NW6       30.22S
OSU AIRPORT    MOSUNNY   57  39  51 N10       30.23S
BOLTON FIELD   MOSUNNY   55  41  58 N7        30.24R
RICKENBACK AFB PTSUNNY   56  39  52 W3        30.23S
NEWARK         CLOUDY    56  41  57 VRB3      30.22R
MARION         SUNNY     54  38  54 N8        30.23F
LANCASTER      PTSUNNY   60  41  49 NW7       30.23R
ZANESVILLE     CLOUDY    57  42  57 NW9       30.21R
NEW PHILLY     CLOUDY    57  40  52 NW7       30.21R
$$


USA.gov is the U.S. government's official web portal to all federal, state and local government web resources and services.